2015-01-24 00:03:28 r, 16.24m,0000000028Hz,0000016292c,0000000.035s, 018.3C,00002195
2015-01-24 00:13:28 r, 16.42m,0000000024Hz,0000019216c,0000000.042s, 018.3C,00002195
2015-01-24 00:23:28 r, 15.83m,0000000041Hz,0000011245c,0000000.024s, 018.3C,00002195
2015-01-24 00:33:28 r, 15.67m,0000000047Hz,0000009692c,0000000.021s, 018.3C,00002195
2015-01-24 00:43:28 r, 15.36m,0000000063Hz,0000007283c,0000000.016s, 018.3C,00002195
2015-01-24 00:53:28 r, 15.13m,0000000079Hz,0000005883c,0000000.013s, 018.0C,00002195
2015-01-24 01:03:28 r, 14.66m,0000000120Hz,0000003815c,0000000.008s, 018.0C,00002195
2015-01-24 01:13:28 r, 15.11m,0000000080Hz,0000005754c,0000000.012s, 018.0C,00002195
2015-01-24 01:23:28 r, 15.44m,0000000058Hz,0000007827c,0000000.017s, 018.0C,00002195
2015-01-24 01:33:28 r, 15.88m,0000000040Hz,0000011679c,0000000.025s, 017.7C,00002195
2015-01-24 01:43:28 r, 15.60m,0000000051Hz,0000009039c,0000000.020s, 017.7C,00002195
2015-01-24 01:53:28 r, 16.25m,0000000028Hz,0000016503c,0000000.036s, 017.7C,00002195
2015-01-24 02:03:28 r, 16.62m,0000000020Hz,0000023243c,0000000.050s, 017.4C,00002195
2015-01-24 02:13:28 r, 16.49m,0000000022Hz,0000020531c,0000000.045s, 017.4C,00002195
2015-01-24 02:23:28 r, 15.96m,0000000036Hz,0000012574c,0000000.027s, 017.4C,00002195
2015-01-24 02:33:28 r, 15.81m,0000000042Hz,0000010990c,0000000.024s, 017.4C,00002195
2015-01-24 02:43:28 r, 15.96m,0000000036Hz,0000012637c,0000000.027s, 017.4C,00002195
2015-01-24 02:53:28 r, 16.02m,0000000034Hz,0000013406c,0000000.029s, 017.0C,00002195
2015-01-24 03:03:28 r, 15.70m,0000000046Hz,0000009951c,0000000.022s, 017.0C,00002195
2015-01-24 03:13:28 r, 15.35m,0000000063Hz,0000007211c,0000000.016s, 017.0C,00002195
2015-01-24 03:23:28 r, 15.36m,0000000064Hz,0000007244c,0000000.016s, 016.7C,00002195
2015-01-24 03:33:28 r, 15.20m,0000000075Hz,0000006247c,0000000.014s, 016.7C,00002195
2015-01-24 03:43:28 r, 15.09m,0000000082Hz,0000005639c,0000000.012s, 016.4C,00002195
2015-01-24 03:53:28 r, 15.04m,0000000085Hz,0000005408c,0000000.012s, 016.4C,00002195
2015-01-24 04:03:28 r, 14.94m,0000000093Hz,0000004952c,0000000.011s, 016.4C,00002195
2015-01-24 04:13:28 r, 14.94m,0000000094Hz,0000004933c,0000000.011s, 016.4C,00002195
2015-01-24 04:23:28 r, 14.90m,0000000095Hz,0000004795c,0000000.010s, 016.1C,00002195
2015-01-24 04:33:28 r, 14.78m,0000000109Hz,0000004263c,0000000.009s, 016.1C,00002195
2015-01-24 04:43:28 r, 14.71m,0000000115Hz,0000003984c,0000000.009s, 015.7C,00002195
2015-01-24 04:53:28 r, 14.67m,0000000119Hz,0000003837c,0000000.008s, 015.7C,00002195
2015-01-24 05:03:28 r, 14.70m,0000000117Hz,0000003943c,0000000.009s, 015.4C,00002195
2015-01-24 05:13:28 r, 14.75m,0000000110Hz,0000004136c,0000000.009s, 015.4C,00002195
2015-01-24 05:23:28 r, 14.70m,0000000117Hz,0000003916c,0000000.008s, 015.1C,00002195
2015-01-24 05:33:28 r, 14.61m,0000000127Hz,0000003601c,0000000.008s, 015.1C,00002195
2015-01-24 05:43:28 r, 14.53m,0000000137Hz,0000000000c,0000000.000s, 014.8C,00002195
2015-01-24 05:53:28 r, 14.60m,0000000128Hz,0000000000c,0000000.000s, 014.8C,00002195
2015-01-24 06:03:28 r, 14.86m,0000000100Hz,0000004602c,0000000.010s, 014.5C,00002195
2015-01-24 06:13:28 r, 14.89m,0000000097Hz,0000004726c,0000000.010s, 014.5C,00002195
2015-01-24 06:23:28 r, 15.03m,0000000087Hz,0000005344c,0000000.012s, 014.1C,00002195
2015-01-24 06:33:28 r, 14.99m,0000000088Hz,0000005183c,0000000.011s, 013.8C,00002195
2015-01-24 06:43:28 r, 15.41m,0000000061Hz,0000007555c,0000000.016s, 013.8C,00002195
2015-01-24 06:53:28 r, 15.96m,0000000037Hz,0000012627c,0000000.027s, 013.8C,00002195
2015-01-24 07:03:28 r, 16.18m,0000000030Hz,0000015448c,0000000.034s, 013.5C,00002195
2015-01-24 07:13:28 r, 15.47m,0000000058Hz,0000008001c,0000000.017s, 013.5C,00002195
2015-01-24 07:23:28 r, 14.66m,0000000121Hz,0000003804c,0000000.008s, 013.2C,00002195
2015-01-24 07:33:28 r, 13.31m,0000000420Hz,0000000000c,0000000.000s, 012.8C,00002195
2015-01-24 07:43:28 r, 11.44m,0000002368Hz,0000000000c,0000000.000s, 012.8C,00002195
2015-01-24 07:53:28 r, 09.56m,0000013426Hz,0000000000c,0000000.000s, 012.5C,00002195
2015-01-24 08:03:28 r, 08.21m,0000046230Hz,0000000000c,0000000.000s, 012.5C,00002195
2015-01-24 08:13:28 r, 07.16m,0000121371Hz,0000000000c,0000000.000s, 012.5C,00002195
2015-01-24 08:23:28 r, 06.39m,0000247229Hz,0000000000c,0000000.000s, 012.2C,00002195
2015-01-24 08:33:28 r, 00.00m,0000400147Hz,0000000000c,0000000.000s, 011.9C,00002195
2015-01-24 08:43:28 r, 00.00m,0000562268Hz,0000000000c,0000000.000s, 011.9C,00002195
2015-01-24 08:53:28 r, 00.00m,0000562221Hz,0000000000c,0000000.000s, 012.2C,00002195
2015-01-24 09:03:28 r, 00.00m,0000562219Hz,0000000000c,0000000.000s, 012.2C,00002195
2015-01-24 09:13:28 r, 00.00m,0000562225Hz,0000000000c,0000000.000s, 012.2C,00002195
2015-01-24 09:23:28 r, 00.00m,0000562283Hz,0000000000c,0000000.000s, 012.5C,00002195
2015-01-24 09:33:28 r, 00.00m,0000562278Hz,0000000000c,0000000.000s, 012.5C,00002195
2015-01-24 09:43:28 r, 00.00m,0000562345Hz,0000000000c,0000000.000s, 012.8C,00002195
2015-01-24 09:53:28 r, 00.00m,0000562389Hz,0000000000c,0000000.000s, 013.2C,00002195
2015-01-24 10:03:28 r, 00.00m,0000562424Hz,0000000000c,0000000.000s, 013.5C,00002195
2015-01-24 10:13:28 r, 00.00m,0000562445Hz,0000000000c,0000000.000s, 013.5C,00002195
2015-01-24 10:23:28 r, 00.00m,0000562539Hz,0000000000c,0000000.000s, 013.8C,00002195
2015-01-24 10:33:28 r, 00.00m,0000562613Hz,0000000000c,0000000.000s, 014.1C,00002195
2015-01-24 10:43:28 r, 00.00m,0000562615Hz,0000000000c,0000000.000s, 014.5C,00002195
2015-01-24 10:53:28 r, 00.00m,0000562726Hz,0000000000c,0000000.000s, 014.5C,00002195
2015-01-24 11:03:28 r, 00.00m,0000562648Hz,0000000000c,0000000.000s, 014.8C,00002195
2015-01-24 11:13:28 r, 00.00m,0000562699Hz,0000000000c,0000000.000s, 014.8C,00002195
2015-01-24 11:23:28 r, 00.00m,0000562700Hz,0000000000c,0000000.000s, 014.8C,00002195
2015-01-24 11:33:28 r, 00.00m,0000562685Hz,0000000000c,0000000.000s, 014.8C,00002195
2015-01-24 11:43:28 r, 00.00m,0000562724Hz,0000000000c,0000000.000s, 015.1C,00002195
2015-01-24 11:53:28 r, 00.00m,0000562742Hz,0000000000c,0000000.000s, 015.1C,00002195
2015-01-24 12:03:28 r, 00.00m,0000562800Hz,0000000000c,0000000.000s, 015.1C,00002195
2015-01-24 12:13:28 r, 00.00m,0000562902Hz,0000000000c,0000000.000s, 015.1C,00002195
2015-01-24 12:23:28 r, 00.00m,0000562753Hz,0000000000c,0000000.000s, 015.1C,00002195
2015-01-24 12:33:28 r, 00.00m,0000562744Hz,0000000000c,0000000.000s, 014.5C,00002195
2015-01-24 12:43:28 r, 00.00m,0000562813Hz,0000000000c,0000000.000s, 015.1C,00002195
2015-01-24 12:53:28 r, 00.00m,0000562854Hz,0000000000c,0000000.000s, 015.4C,00002195
2015-01-24 13:03:28 r, 00.00m,0000562761Hz,0000000000c,0000000.000s, 015.1C,00002195
2015-01-24 13:13:28 r, 00.00m,0000562836Hz,0000000000c,0000000.000s, 015.1C,00002195
2015-01-24 13:23:28 r, 00.00m,0000562818Hz,0000000000c,0000000.000s, 015.1C,00002195
2015-01-24 13:33:28 r, 00.00m,0000562664Hz,0000000000c,0000000.000s, 014.8C,00002195
2015-01-24 13:43:28 r, 00.00m,0000562690Hz,0000000000c,0000000.000s, 014.5C,00002195
2015-01-24 13:53:28 r, 00.00m,0000562750Hz,0000000000c,0000000.000s, 014.5C,00002195
2015-01-24 14:03:28 r, 00.00m,0000562664Hz,0000000000c,0000000.000s, 014.1C,00002195
2015-01-24 14:13:28 r, 00.00m,0000562594Hz,0000000000c,0000000.000s, 013.8C,00002195
2015-01-24 14:23:28 r, 00.00m,0000562620Hz,0000000000c,0000000.000s, 013.8C,00002195
2015-01-24 14:33:28 r, 00.00m,0000562560Hz,0000000000c,0000000.000s, 013.8C,00002195
2015-01-24 14:43:28 r, 00.00m,0000562503Hz,0000000000c,0000000.000s, 013.8C,00002195
2015-01-24 14:53:28 r, 00.00m,0000562528Hz,0000000000c,0000000.000s, 013.5C,00002195
2015-01-24 15:03:28 r, 00.00m,0000562490Hz,0000000000c,0000000.000s, 013.2C,00002195
2015-01-24 15:13:28 r, 00.00m,0000562428Hz,0000000000c,0000000.000s, 012.8C,00002195
2015-01-24 15:23:28 r, 00.00m,0000562309Hz,0000000000c,0000000.000s, 012.8C,00002195
2015-01-24 15:33:28 r, 00.00m,0000562292Hz,0000000000c,0000000.000s, 012.5C,00002195
2015-01-24 15:43:28 r, 00.00m,0000562286Hz,0000000000c,0000000.000s, 012.2C,00002195
2015-01-24 15:53:28 r, 00.00m,0000562144Hz,0000000000c,0000000.000s, 011.9C,00002195
2015-01-24 16:03:28 r, 00.00m,0000562240Hz,0000000000c,0000000.000s, 011.9C,00002195
2015-01-24 16:13:28 r, 00.00m,0000562133Hz,0000000000c,0000000.000s, 011.9C,00002195
2015-01-24 16:23:28 r, 00.00m,0000562158Hz,0000000000c,0000000.000s, 011.6C,00002195
2015-01-24 16:33:28 r, 00.00m,0000561269Hz,0000000000c,0000000.000s, 011.2C,00002195
2015-01-24 16:43:28 r, 00.00m,0000450393Hz,0000000000c,0000000.000s, 011.2C,00002195
2015-01-24 16:53:28 r, 06.32m,0000265037Hz,0000000000c,0000000.000s, 010.9C,00002195
2015-01-24 17:03:28 r, 06.94m,0000150398Hz,0000000000c,0000000.000s, 010.3C,00002195
2015-01-24 17:13:28 r, 07.75m,0000070733Hz,0000000000c,0000000.000s, 010.3C,00002195
2015-01-24 17:23:28 r, 08.95m,0000023347Hz,0000000000c,0000000.000s, 009.9C,00002195
2015-01-24 17:33:28 r, 10.60m,0000005144Hz,0000000000c,0000000.000s, 009.6C,00002195
2015-01-24 17:43:28 r, 12.45m,0000000929Hz,0000000000c,0000000.000s, 009.6C,00002195
2015-01-24 17:53:28 r, 14.23m,0000000181Hz,0000000000c,0000000.000s, 009.3C,00002195
2015-01-24 18:03:28 r, 15.62m,0000000051Hz,0000009218c,0000000.020s, 009.6C,00002195
2015-01-24 18:13:28 r, 16.34m,0000000026Hz,0000018022c,0000000.039s, 009.3C,00002195
2015-01-24 18:23:28 r, 16.48m,0000000022Hz,0000020457c,0000000.044s, 009.3C,00002195
2015-01-24 18:33:28 r, 16.25m,0000000028Hz,0000016479c,0000000.036s, 009.3C,00002195
2015-01-24 18:43:28 r, 16.16m,0000000030Hz,0000015137c,0000000.033s, 009.3C,00002195
2015-01-24 18:53:28 r, 15.73m,0000000045Hz,0000010214c,0000000.022s, 009.3C,00002195
2015-01-24 19:03:28 r, 15.49m,0000000057Hz,0000008130c,0000000.018s, 009.3C,00002195
2015-01-24 19:13:28 r, 15.33m,0000000065Hz,0000007073c,0000000.015s, 009.6C,00002195
2015-01-24 19:23:28 r, 15.47m,0000000058Hz,0000008025c,0000000.017s, 009.6C,00002195
2015-01-24 19:33:28 r, 15.47m,0000000056Hz,0000008026c,0000000.017s, 009.6C,00002195
2015-01-24 19:43:28 r, 15.14m,0000000079Hz,0000005935c,0000000.013s, 009.9C,00002195
2015-01-24 19:53:28 r, 15.21m,0000000073Hz,0000006309c,0000000.014s, 009.9C,00002195
2015-01-24 20:03:28 r, 15.25m,0000000070Hz,0000006549c,0000000.014s, 009.9C,00002195
2015-01-24 20:13:28 r, 15.22m,0000000073Hz,0000006383c,0000000.014s, 010.3C,00002195
2015-01-24 20:23:28 r, 15.36m,0000000063Hz,0000007257c,0000000.016s, 010.3C,00002195
2015-01-24 20:33:28 r, 15.30m,0000000067Hz,0000006851c,0000000.015s, 010.6C,00002195
2015-01-24 20:43:28 r, 15.46m,0000000058Hz,0000007987c,0000000.017s, 010.6C,00002195
2015-01-24 20:53:28 r, 15.75m,0000000044Hz,0000010464c,0000000.023s, 010.6C,00002195
2015-01-24 21:03:28 r, 15.71m,0000000046Hz,0000009992c,0000000.022s, 010.9C,00002195
2015-01-24 21:13:28 r, 15.69m,0000000046Hz,0000009906c,0000000.021s, 010.9C,00002195
2015-01-24 21:23:28 r, 16.14m,0000000030Hz,0000014861c,0000000.032s, 010.9C,00002195
2015-01-24 21:33:28 r, 16.17m,0000000030Hz,0000015298c,0000000.033s, 010.9C,00002195
2015-01-24 21:43:28 r, 16.57m,0000000020Hz,0000022119c,0000000.048s, 010.9C,00002195
2015-01-24 21:53:28 r, 16.35m,0000000026Hz,0000018123c,0000000.039s, 010.9C,00002195
2015-01-24 22:03:28 r, 16.32m,0000000026Hz,0000017613c,0000000.038s, 010.6C,00002195
2015-01-24 22:13:28 r, 16.47m,0000000023Hz,0000020246c,0000000.044s, 010.9C,00002195
2015-01-24 22:23:28 r, 16.63m,0000000020Hz,0000023324c,0000000.051s, 010.6C,00002195
2015-01-24 22:33:28 r, 16.69m,0000000019Hz,0000024767c,0000000.054s, 010.6C,00002195
2015-01-24 22:43:28 r, 16.96m,0000000015Hz,0000031609c,0000000.069s, 010.6C,00002195
2015-01-24 22:53:28 r, 17.35m,0000000010Hz,0000045176c,0000000.098s, 010.3C,00002195
2015-01-24 23:03:28 r, 17.42m,0000000010Hz,0000048306c,0000000.105s, 010.3C,00002195
2015-01-24 23:13:28 r, 16.98m,0000000014Hz,0000032363c,0000000.070s, 009.9C,00002195
2015-01-24 23:23:28 r, 17.21m,0000000012Hz,0000040053c,0000000.087s, 009.9C,00002195
2015-01-24 23:33:28 r, 17.24m,0000000012Hz,0000041053c,0000000.089s, 009.9C,00002195
2015-01-24 23:43:28 r, 17.20m,0000000011Hz,0000039534c,0000000.086s, 009.6C,00002195
2015-01-24 23:53:28 r, 17.71m,0000000007Hz,0000063120c,0000000.137s, 009.6C,00002195
